Flag for Germany Weather past 2 weeks in Regensburg, Bavaria, Germany

Now
59 °F

Overcast.


Feels Like: 59 °F
Forecast: 43 / 56 °F
Wind: 1 mph from Southeast

Location: Regensburg

Current Time: Sep 21, 2014 at 10:47:07 AM

Latest Report: Sep 21, 2014 at 10:00 AM


Visibility: 4 mi

Pressure: 29.96 "Hg

Humidity: 95%

Dew point: 58 °F

Location of RegensburgLocation

Historic Weather in Regensburg — Graph

°F

Regensburg temperature yesterday

Maximum temperature yesterday: 67 °F (at 3:00 PM)
Minimum temperature yesterday: 58 °F (at 3:00 AM)
Average temperature yesterday: 61 °F

Past Weeks' High & Low Weather Summary

 TemperatureHumidityPressure
High79 °F (Sep 7, 3:00 PM)100% (Sep 21, 5:00 AM)30.11 "Hg (Sep 21, 5:00 AM)
Low51 °F (Sep 10, 7:00 AM)42% (Sep 10, 4:00 PM)29.84 "Hg (Sep 6, 5:00 PM)
Average61 °F83%29.98 "Hg
* Reported Sep 6 9:00 AM — Sep 21 9:00 AM, Regensburg, Weather by CustomWeather, © 2014

Note: Actual official high and low records may vary slightly from our data, if they occured in-between our weather recording intervals... More about our weather records

Advertising

Regensburg weather history for previous 24 hours

 ConditionsComfort  
Time TempWeatherWind HumidityBarometerVisibility
9:00 AM
Sep 21
58 °FLight rain. Partly sunny.1 mph99%29.97 "Hg2 mi
8:00 AM57 °FRain. Dense fog.1 mph98%29.98 "Hg1 mi
7:00 AM56 °FLow clouds.2 mph99%29.97 "Hg1 mi
6:00 AM57 °FLow clouds.2 mph99%29.97 "Hg0 mi
5:00 AM57 °FLow clouds.1 mph100%29.97 "Hg0 mi
4:00 AM57 °FLow clouds.1 mph99%29.98 "Hg0 mi
3:00 AM56 °FFog.No wind99%29.99 "Hg2 mi
2:00 AM56 °FClear.No wind99%30.00 "Hg3 mi
1:00 AM57 °FLow clouds.No wind99%30.00 "Hg0 mi
12:00 AM57 °FPassing clouds.No wind98%30.00 "Hg1 mi
11:00 PM
Sep 20
60 °FClear.1 mph95%29.98 "Hg16 mi
10:00 PM60 °FPassing clouds.1 mph97%29.98 "Hg11 mi
9:00 PM62 °FPassing clouds.1 mph96%29.98 "Hg12 mi
8:00 PM63 °FPassing clouds.1 mph93%29.96 "Hg19 mi
3:00 PM67 °FLight rain. Overcast.1 mph82%29.96 "Hg12 mi
2:00 PM65 °FOvercast.2 mph89%29.98 "Hg9 mi
1:00 PM65 °FDrizzle. Partly sunny.1 mph90%29.98 "Hg4 mi
12:00 PM64 °FOvercast.2 mph89%29.99 "Hg6 mi
11:00 AM62 °FLow clouds.2 mph95%29.99 "Hg3 mi
10:00 AM61 °FLight rain. Low clouds.2 mph96%29.98 "Hg2 mi
Weather by CustomWeather, © 2014

See weather overviewHow to use our weather pages